Weather History for Park Rapids, MN

Change the Weather History Date:

Sunday, June 9, 2013

  Actual Average Record
Temperature  
Mean Temperature 55 °F -  
Max Temperature 57 °F 74 °F 92 °F (1976)
Min Temperature 53 °F 47 °F 35 °F (1989)
Degree Days  
Heating Degree Days 10    
Growing Degree Days 5 (Base 50)    
Moisture  
Dew Point 53 °F    
Average Humidity 93    
Maximum Humidity 100    
Minimum Humidity 75    
Precipitation  
Precipitation 0.47 in - - ()
Sea Level Pressure  
Sea Level Pressure 29.88 in    
Wind  
Wind Speed 8 mph (East)    
Max Wind Speed 13 mph    
Max Gust Speed 20 mph    
Visibility 5 miles    
Events Rain    
Averages and records for this station are not official NWS values.
T = Trace of Precipitation, MM = Missing Value Source: NWS Daily Summary

Daily Weather History Graph

Daily Weather History Graph

Search for Another Location

Airport:

Trip Planner

Search our weather history database for the weather conditions in past years. The results will help you decide how hot, cold, wet, or windy it might be!

Date:

Astronomy

Jun. 09, 2013 Rise Set
Actual Time 5:25 AM CDT 9:13 PM CDT
Civil Twilight 4:46 AM CDT 9:52 PM CDT
Nautical Twilight 3:53 AM CDT 10:46 PM CDT
Astronomical Twilight 2:36 AM CDT 12:03 AM CDT
Moon 6:27 AM CDT (6/9) 9:55 PM CDT (6/9)
Length of Visible Light 17h 06m
Length of Day
15h 47m
New Moon, 1% of the Moon is Illuminated
Jun 9
New Moon
Jun 16
First Quarter
Jun 23
Full
Jun 29
Last Quarter
Jul 8
New

Hourly Weather History & Observations

Time (CDT) Temp. Dew Point Humidity Pressure Visibility Wind Dir Wind Speed Gust Speed Precip Events Conditions
12:53 AM 57.9 °F 50.0 °F 75% 29.91 in 10.0 mi East 8.1 mph - N/A   Partly Cloudy
1:53 AM 57.9 °F 50.0 °F 75% 29.91 in 10.0 mi East 9.2 mph - N/A   Mostly Cloudy
2:53 AM 57.9 °F 50.0 °F 75% 29.90 in 10.0 mi East 9.2 mph - N/A   Mostly Cloudy
3:53 AM 57.0 °F 50.0 °F 77% 29.89 in 10.0 mi East 9.2 mph - N/A   Scattered Clouds
4:53 AM 55.9 °F 51.1 °F 84% 29.88 in 10.0 mi East 6.9 mph - N/A   Clear
5:53 AM 55.9 °F 50.0 °F 80% 29.88 in 10.0 mi East 9.2 mph - N/A   Scattered Clouds
6:53 AM 55.0 °F 50.0 °F 83% 29.88 in 10.0 mi East 8.1 mph - N/A   Scattered Clouds
7:53 AM 55.0 °F 51.1 °F 86% 29.88 in 10.0 mi East 5.8 mph - 0.00 in Rain Light Rain
8:53 AM 54.0 °F 52.0 °F 93% 29.89 in 5.0 mi East 8.1 mph - 0.05 in Rain Light Rain
9:43 AM 53.6 °F 51.8 °F 94% 29.89 in 3.0 mi East 8.1 mph - 0.06 in Rain Rain
9:53 AM 54.0 °F 53.1 °F 97% 29.90 in 4.0 mi East 8.1 mph - 0.07 in Rain Light Rain
10:01 AM 53.6 °F 53.6 °F 100% 29.89 in 3.0 mi East 9.2 mph - 0.01 in Rain Light Rain
10:15 AM 53.6 °F 53.6 °F 100% 29.90 in 3.0 mi East 8.1 mph - 0.04 in Rain Rain
10:30 AM 53.6 °F 53.6 °F 100% 29.90 in 3.0 mi East 9.2 mph - 0.06 in Rain Light Rain
10:53 AM 55.0 °F 53.1 °F 93% 29.91 in 4.0 mi East 6.9 mph - 0.09 in Rain Light Rain
11:27 AM 55.4 °F 53.6 °F 94% 29.90 in 6.0 mi East 6.9 mph - 0.03 in Rain Light Rain
11:53 AM 55.0 °F 54.0 °F 96% 29.91 in 5.0 mi East 8.1 mph - 0.07 in Rain Light Rain
12:36 PM 55.4 °F 53.6 °F 94% 29.89 in 5.0 mi ENE 9.2 mph - 0.06 in Rain Light Rain
12:44 PM 55.4 °F 53.6 °F 94% 29.89 in 4.0 mi East 10.4 mph - 0.07 in Rain Light Rain
12:53 PM 55.9 °F 54.0 °F 93% 29.90 in 2.5 mi ENE 10.4 mph - 0.08 in Rain Light Rain
1:19 PM 55.4 °F 53.6 °F 94% 29.88 in 1.5 mi ENE 6.9 mph - 0.04 in Rain Rain
1:32 PM 55.4 °F 53.6 °F 94% 29.88 in 2.0 mi ENE 11.5 mph - 0.07 in Rain Rain
1:53 PM 55.9 °F 54.0 °F 93% 29.89 in 5.0 mi East 9.2 mph - 0.08 in Rain Light Rain
2:49 PM 55.4 °F 53.6 °F 94% 29.87 in 5.0 mi ENE 11.5 mph - 0.00 in   Overcast
2:53 PM 55.9 °F 54.0 °F 93% 29.88 in 5.0 mi East 9.2 mph - 0.00 in   Overcast
3:53 PM 55.9 °F 54.0 °F 93% 29.87 in 4.0 mi East 12.7 mph 19.6 mph 0.01 in Rain Light Rain
4:06 PM 55.4 °F 53.6 °F 94% 29.86 in 2.0 mi East 10.4 mph - 0.00 in Rain Light Rain
4:31 PM 55.4 °F 53.6 °F 94% 29.85 in 3.0 mi East 11.5 mph - 0.01 in Rain Light Rain
4:53 PM 55.9 °F 54.0 °F 93% 29.87 in 6.0 mi East 6.9 mph - 0.01 in   Overcast
5:48 PM 55.4 °F 53.6 °F 94% 29.85 in 8.0 mi ESE 8.1 mph - N/A   Overcast
5:53 PM 55.0 °F 53.1 °F 93% 29.86 in 8.0 mi East 10.4 mph - N/A   Overcast
6:38 PM 55.4 °F 53.6 °F 94% 29.85 in 7.0 mi ESE 6.9 mph - N/A   Overcast
6:53 PM 55.0 °F 53.1 °F 93% 29.86 in 8.0 mi ESE 6.9 mph - N/A   Overcast
7:53 PM 54.0 °F 53.1 °F 97% 29.87 in 4.0 mi ESE 4.6 mph - N/A   Overcast
8:53 PM 54.0 °F 53.1 °F 97% 29.87 in 5.0 mi Calm Calm - N/A   Overcast
9:30 PM 53.6 °F 53.6 °F 100% 29.85 in 3.0 mi Calm Calm - 0.01 in   Overcast
9:49 PM 53.6 °F 53.6 °F 100% 29.86 in 2.5 mi Calm Calm - 0.01 in   Overcast
9:53 PM 54.0 °F 53.1 °F 97% 29.87 in 2.5 mi Calm Calm - 0.01 in   Overcast
9:59 PM 53.6 °F 53.6 °F 100% 29.86 in 3.0 mi Calm Calm - N/A   Overcast
10:23 PM 53.6 °F 53.6 °F 100% 29.86 in 7.0 mi Calm Calm - N/A   Overcast
10:53 PM 54.0 °F 53.1 °F 97% 29.88 in 5.0 mi Calm Calm - N/A   Overcast
11:17 PM 53.6 °F 53.6 °F 100% 29.85 in 2.5 mi Calm Calm - N/A   Overcast
11:23 PM 53.6 °F 53.6 °F 100% 29.86 in 1.8 mi Calm Calm - N/A   Overcast
11:53 PM 54.0 °F 54.0 °F 100% 29.87 in 1.0 mi Calm Calm - N/A   Overcast